| time (UTC) | temp C | wind direction | speed KPH | gust KPH | rain 1hr cm | rain 24hr cm | rain mn cm | humidity % | barometer mb |
| 20260510075507 | 18 | 352 | 0.0 | 3.2 | 0.00 | 2.62 | 0.00 | 97 | 1013.7 |
| 20260510075012 | 18 | 352 | 1.6 | 3.2 | 0.00 | 2.62 | 0.00 | 97 | 1013.6 |
| 20260510074531 | 18 | 352 | 0.0 | 3.2 | 0.00 | 2.62 | 0.00 | 97 | 1013.5 |
| 20260510074006 | 18 | 352 | 0.0 | 3.2 | 0.00 | 2.62 | 0.00 | 97 | 1013.5 |
| 20260510073503 | 18 | 352 | 0.0 | 3.2 | 0.00 | 2.62 | 0.00 | 97 | 1013.3 |
| 20260510073018 | 18 | 352 | 0.0 | 3.2 | 0.00 | 2.62 | 0.00 | 97 | 1013.2 |
| 20260510072504 | 18 | 352 | 0.0 | 3.2 | 0.00 | 2.62 | 0.00 | 97 | 1013.2 |
| 20260510072003 | 18 | 352 | 1.6 | 3.2 | 0.00 | 2.62 | 0.00 | 97 | 1013.2 |
| 20260510071522 | 18 | 5 | 0.0 | 3.2 | 0.00 | 2.62 | 0.00 | 97 | 1013.1 |
| 20260510071006 | 18 | 74 | 1.6 | 4.8 | 0.00 | 2.62 | 0.00 | 97 | 1013.1 |
| 20260510070506 | 18 | 345 | 3.2 | 6.4 | 0.00 | 2.62 | 0.00 | 97 | 1013.2 |
| 20260510070027 | 18 | 144 | 3.2 | 6.4 | 0.00 | 2.62 | 0.00 | 97 | 1013.1 |
| 20260510065503 | 18 | 349 | 0.0 | 3.2 | 0.00 | 2.62 | 0.00 | 97 | 1013.3 |
| 20260510065003 | 18 | 349 | 0.0 | 3.2 | 0.00 | 2.62 | 0.00 | 97 | 1013.4 |
| 20260510064508 | 18 | 349 | 0.0 | 3.2 | 0.00 | 2.62 | 0.00 | 97 | 1013.4 |
| 20260510064003 | 18 | 349 | 0.0 | 3.2 | 0.00 | 2.62 | 0.00 | 97 | 1013.4 |
| 20260510063505 | 18 | 349 | 1.6 | 3.2 | 0.00 | 2.62 | 0.00 | 97 | 1013.4 |
| 20260510063014 | 18 | 349 | 0.0 | 3.2 | 0.00 | 2.62 | 0.00 | 97 | 1013.7 |
| 20260510062503 | 18 | 349 | 0.0 | 3.2 | 0.00 | 2.62 | 0.00 | 97 | 1013.5 |
| 20260510062007 | 18 | 349 | 0.0 | 3.2 | 0.00 | 2.62 | 0.00 | 97 | 1013.5 |
| 20260510061519 | 18 | 349 | 0.0 | 3.2 | 0.00 | 2.62 | 0.00 | 97 | 1013.7 |
| 20260510061007 | 18 | 349 | 1.6 | 3.2 | 0.00 | 2.62 | 0.00 | 97 | 1013.5 |
| 20260510060506 | 18 | 340 | 1.6 | 3.2 | 0.00 | 2.62 | 0.00 | 97 | 1013.6 |
| 20260510060021 | 18 | 239 | 0.0 | 3.2 | 0.00 | 2.62 | 0.00 | 97 | 1013.6 |
| 20260510055510 | 18 | 239 | 0.0 | 3.2 | 0.00 | 2.62 | 0.00 | 97 | 1013.7 |
| 20260510055006 | 18 | 239 | 0.0 | 3.2 | 0.00 | 2.62 | 0.00 | 97 | 1013.7 |
| 20260510054506 | 18 | 239 | 0.0 | 3.2 | 0.00 | 2.62 | 0.00 | 97 | 1013.9 |
| 20260510054005 | 18 | 239 | 0.0 | 3.2 | 0.00 | 2.62 | 0.00 | 97 | 1013.9 |
| 20260510053502 | 18 | 296 | 0.0 | 3.2 | 0.00 | 2.62 | 0.00 | 97 | 1014.0 |
| 20260510053012 | 18 | 296 | 0.0 | 4.8 | 0.00 | 2.62 | 0.00 | 97 | 1014.1 |
| 20260510052504 | 18 | 296 | 0.0 | 4.8 | 0.00 | 2.62 | 0.00 | 97 | 1014.2 |
| 20260510052002 | 18 | 298 | 1.6 | 4.8 | 0.00 | 2.62 | 0.00 | 97 | 1014.3 |
| 20260510051518 | 18 | 331 | 1.6 | 3.2 | 0.00 | 2.62 | 0.00 | 97 | 1014.2 |
| 20260510051006 | 18 | 309 | 0.0 | 3.2 | 0.00 | 2.62 | 0.00 | 97 | 1014.3 |
| 20260510050509 | 18 | 273 | 1.6 | 4.8 | 0.00 | 2.62 | 0.00 | 97 | 1014.5 |
| 20260510050022 | 18 | 270 | 3.2 | 4.8 | 0.00 | 2.62 | 0.00 | 97 | 1014.9 |
| 20260510045507 | 18 | 278 | 3.2 | 4.8 | 0.00 | 2.62 | 2.62 | 97 | 1014.6 |
| 20260510045010 | 18 | 297 | 3.2 | 6.4 | 0.00 | 2.62 | 2.62 | 97 | 1014.6 |
| 20260510044533 | 18 | 325 | 3.2 | 6.4 | 0.00 | 2.62 | 2.62 | 97 | 1014.7 |
| 20260510044010 | 18 | 281 | 1.6 | 3.2 | 0.00 | 2.62 | 2.62 | 97 | 1014.9 |
| 20260510043504 | 18 | 239 | 0.0 | 3.2 | 0.00 | 2.62 | 2.62 | 97 | 1014.5 |
| 20260510043015 | 18 | 229 | 0.0 | 4.8 | 0.00 | 2.62 | 2.62 | 97 | 1014.3 |
| 20260510042503 | 18 | 267 | 1.6 | 4.8 | 0.00 | 2.62 | 2.62 | 97 | 1014.2 |
| 20260510042005 | 18 | 273 | 1.6 | 3.2 | 0.00 | 2.64 | 2.62 | 97 | 1014.1 |
| 20260510041518 | 18 | 219 | 1.6 | 4.8 | 0.00 | 2.64 | 2.62 | 97 | 1013.6 |
| 20260510041005 | 18 | 139 | 1.6 | 4.8 | 0.00 | 2.64 | 2.62 | 97 | 1013.1 |
| 20260510040503 | 18 | 92 | 3.2 | 6.4 | 0.00 | 2.64 | 2.62 | 97 | 1012.7 |
| 20260510040021 | 19 | 103 | 3.2 | 6.4 | 0.00 | 2.64 | 2.62 | 97 | 1012.9 |
| 20260510035507 | 19 | 146 | 1.6 | 6.4 | 0.00 | 2.64 | 2.62 | 97 | 1013.1 |
| 20260510035007 | 19 | 92 | 3.2 | 6.4 | 0.00 | 2.64 | 2.62 | 97 | 1012.8 |
| 20260510034524 | 19 | 76 | 3.2 | 6.4 | 0.00 | 2.64 | 2.62 | 97 | 1012.8 |
| 20260510034007 | 19 | 74 | 3.2 | 6.4 | 0.00 | 2.64 | 2.62 | 97 | 1013.0 |
| 20260510033508 | 19 | 106 | 3.2 | 6.4 | 0.00 | 2.64 | 2.62 | 97 | 1013.3 |
| 20260510033026 | 19 | 85 | 3.2 | 6.4 | 0.03 | 2.64 | 2.62 | 97 | 1013.2 |
| 20260510032503 | 19 | 86 | 3.2 | 6.4 | 0.03 | 2.64 | 2.62 | 97 | 1013.6 |
| 20260510032004 | 19 | 43 | 4.8 | 6.4 | 0.03 | 2.64 | 2.62 | 96 | 1013.7 |
| 20260510031520 | 19 | 32 | 1.6 | 3.2 | 0.03 | 2.64 | 2.62 | 96 | 1014.0 |
| 20260510031004 | 19 | 69 | 1.6 | 3.2 | 0.03 | 2.64 | 2.62 | 96 | 1014.2 |
| 20260510030506 | 19 | 92 | 1.6 | 1.6 | 0.03 | 2.64 | 2.62 | 97 | 1014.7 |
| 20260510030031 | 19 | 315 | 0.0 | 3.2 | 0.03 | 2.64 | 2.62 | 96 | 1015.1 |
| 20260510025506 | 19 | 315 | 0.0 | 3.2 | 0.03 | 2.64 | 2.62 | 96 | 1015.3 |
| 20260510025006 | 19 | 315 | 0.0 | 1.6 | 0.03 | 2.64 | 2.62 | 96 | 1015.3 |
| 20260510024525 | 19 | 315 | 0.0 | 0.0 | 0.03 | 2.64 | 2.62 | 96 | 1015.2 |
| 20260510024007 | 19 | 315 | 0.0 | 1.6 | 0.03 | 2.64 | 2.62 | 96 | 1015.2 |
| 20260510023510 | 19 | 315 | 0.0 | 3.2 | 0.03 | 2.64 | 2.62 | 96 | 1015.1 |
| 20260510023026 | 19 | 315 | 0.0 | 3.2 | 0.00 | 2.62 | 2.59 | 96 | 1015.1 |
| 20260510022507 | 19 | 315 | 0.0 | 3.2 | 0.00 | 2.62 | 2.59 | 96 | 1015.1 |
| 20260510022010 | 19 | 315 | 0.0 | 3.2 | 0.00 | 2.62 | 2.59 | 96 | 1014.7 |
| 20260510021514 | 19 | 315 | 1.6 | 6.4 | 0.00 | 2.62 | 2.59 | 96 | 1014.7 |
| 20260510021004 | 19 | 24 | 1.6 | 6.4 | 0.00 | 2.62 | 2.59 | 96 | 1014.1 |
| 20260510020505 | 19 | 75 | 3.2 | 4.8 | 0.00 | 2.62 | 2.59 | 96 | 1014.1 |
| 20260510020016 | 19 | 142 | 0.0 | 3.2 | 0.00 | 2.62 | 2.59 | 96 | 1014.2 |
| 20260510015505 | 19 | 142 | 0.0 | 1.6 | 0.00 | 2.62 | 2.59 | 96 | 1014.4 |
| 20260510015006 | 19 | 142 | 0.0 | 1.6 | 0.00 | 2.62 | 2.59 | 96 | 1014.5 |
| 20260510014521 | 19 | 142 | 0.0 | 0.0 | 0.00 | 2.62 | 2.59 | 96 | 1014.5 |
| 20260510014007 | 19 | 142 | 0.0 | 0.0 | 0.00 | 2.62 | 2.59 | 96 | 1014.2 |
| 20260510013508 | 19 | 142 | 0.0 | 0.0 | 0.00 | 2.62 | 2.59 | 96 | 1014.1 |
| 20260510013025 | 19 | 142 | 0.0 | 0.0 | 0.00 | 2.62 | 2.59 | 96 | 1014.0 |
| 20260510012507 | 19 | 142 | 0.0 | 3.2 | 0.00 | 2.62 | 2.59 | 96 | 1013.9 |
| 20260510012010 | 19 | 142 | 0.0 | 3.2 | 0.00 | 2.62 | 2.59 | 96 | 1013.9 |
| 20260510011528 | 19 | 142 | 0.0 | 1.6 | 0.00 | 2.62 | 2.59 | 96 | 1013.7 |
| 20260510011013 | 19 | 142 | 1.6 | 1.6 | 0.00 | 2.62 | 2.59 | 96 | 1013.5 |
| 20260510010503 | 20 | 169 | 0.0 | 3.2 | 0.00 | 2.62 | 2.59 | 96 | 1013.5 |
| 20260510010016 | 20 | 248 | 0.0 | 3.2 | 0.00 | 2.62 | 2.59 | 95 | 1013.6 |
| 20260510005503 | 20 | 248 | 0.0 | 3.2 | 0.00 | 2.62 | 2.59 | 95 | 1013.6 |
| 20260510005005 | 20 | 248 | 0.0 | 3.2 | 0.00 | 2.62 | 2.59 | 95 | 1013.6 |
| 20260510004518 | 20 | 248 | 0.0 | 3.2 | 0.00 | 2.62 | 2.59 | 95 | 1013.5 |
| 20260510004010 | 20 | 248 | 0.0 | 3.2 | 0.00 | 2.62 | 2.59 | 95 | 1013.5 |
| 20260510003508 | 20 | 248 | 0.0 | 3.2 | 0.00 | 2.62 | 2.59 | 95 | 1013.5 |
| 20260510003026 | 20 | 248 | 0.0 | 3.2 | 0.00 | 2.62 | 2.59 | 95 | 1013.6 |
| 20260510002506 | 20 | 248 | 0.0 | 3.2 | 0.00 | 2.62 | 2.59 | 95 | 1013.7 |
| 20260510002010 | 20 | 334 | 0.0 | 3.2 | 0.00 | 2.62 | 2.59 | 95 | 1013.7 |
| 20260510001525 | 20 | 334 | 1.6 | 3.2 | 0.00 | 2.62 | 2.59 | 95 | 1013.6 |
| 20260510001009 | 20 | 346 | 1.6 | 3.2 | 0.00 | 2.62 | 2.59 | 94 | 1013.5 |
| 20260510000510 | 20 | 345 | 0.0 | 3.2 | 0.00 | 2.62 | 2.59 | 94 | 1013.3 |
| 20260510000030 | 20 | 346 | 1.6 | 3.2 | 0.00 | 2.62 | 2.59 | 94 | 1013.1 |
| 20260509235503 | 20 | 22 | 0.0 | 3.2 | 0.00 | 2.62 | 2.59 | 94 | 1012.9 |
| 20260509235008 | 20 | 126 | 0.0 | 3.2 | 0.00 | 2.62 | 2.59 | 94 | 1012.9 |
| 20260509234518 | 20 | 125 | 0.0 | 1.6 | 0.00 | 2.62 | 2.59 | 94 | 1012.8 |
| 20260509234006 | 20 | 114 | 1.6 | 3.2 | 0.00 | 2.62 | 2.59 | 93 | 1012.9 |
| 20260509233505 | 20 | 49 | 1.6 | 1.6 | 0.00 | 2.62 | 2.59 | 93 | 1012.9 |
| 20260509233025 | 20 | 120 | 0.0 | 1.6 | 0.00 | 2.62 | 2.59 | 93 | 1012.8 |
| 20260509232510 | 20 | 16 | 0.0 | 3.2 | 0.00 | 2.62 | 2.59 | 93 | 1012.9 |
| 20260509232009 | 20 | 333 | 0.0 | 3.2 | 0.00 | 2.62 | 2.59 | 93 | 1013.1 |
| 20260509231524 | 20 | 333 | 0.0 | 1.6 | 0.00 | 2.62 | 2.59 | 92 | 1013.2 |
| 20260509231007 | 20 | 333 | 0.0 | 3.2 | 0.00 | 2.62 | 2.59 | 92 | 1013.3 |
| 20260509230508 | 20 | 333 | 0.0 | 3.2 | 0.00 | 2.62 | 2.59 | 92 | 1013.1 |
| 20260509230027 | 20 | 333 | 0.0 | 3.2 | 0.00 | 2.62 | 2.59 | 92 | 1013.0 |
| 20260509225507 | 20 | 42 | 1.6 | 3.2 | 0.00 | 2.62 | 2.59 | 92 | 1012.7 |
| 20260509225003 | 20 | 61 | 1.6 | 3.2 | 0.00 | 2.62 | 2.59 | 92 | 1012.6 |
| 20260509224517 | 20 | 352 | 1.6 | 6.4 | 0.00 | 2.62 | 2.59 | 91 | 1012.4 |
| 20260509224003 | 20 | 18 | 0.0 | 8.0 | 0.00 | 2.62 | 2.59 | 91 | 1012.3 |
| 20260509223504 | 21 | 53 | 3.2 | 8.0 | 0.00 | 2.64 | 2.59 | 91 | 1012.1 |
| 20260509223018 | 21 | 31 | 3.2 | 6.4 | 0.00 | 2.64 | 2.59 | 90 | 1012.0 |
| 20260509222507 | 21 | 18 | 3.2 | 6.4 | 0.00 | 2.64 | 2.59 | 91 | 1012.3 |
| 20260509222006 | 21 | 325 | 1.6 | 8.0 | 0.00 | 2.72 | 2.59 | 91 | 1012.4 |
| 20260509221528 | 21 | 341 | 1.6 | 8.0 | 0.00 | 2.77 | 2.59 | 91 | 1012.7 |
| 20260509221013 | 21 | 333 | 3.2 | 11.3 | 0.00 | 2.77 | 2.59 | 91 | 1012.7 |
| 20260509220510 | 21 | 325 | 4.8 | 11.3 | 0.00 | 2.79 | 2.59 | 91 | 1012.9 |
| 20260509220030 | 21 | 322 | 3.2 | 11.3 | 0.00 | 2.79 | 2.59 | 91 | 1012.9 |
| 20260509215510 | 21 | 319 | 4.8 | 11.3 | 0.00 | 2.79 | 2.59 | 91 | 1012.8 |
| 20260509215008 | 21 | 299 | 1.6 | 6.4 | 0.00 | 2.79 | 2.59 | 91 | 1012.5 |
| 20260509214531 | 21 | 295 | 1.6 | 6.4 | 0.00 | 2.79 | 2.59 | 91 | 1012.3 |
| 20260509214004 | 20 | 115 | 0.0 | 6.4 | 0.00 | 2.79 | 2.59 | 90 | 1012.0 |
| 20260509213505 | 20 | 196 | 1.6 | 8.0 | 0.00 | 2.82 | 2.59 | 91 | 1011.8 |
| 20260509213017 | 20 | 176 | 1.6 | 8.0 | 0.00 | 2.82 | 2.59 | 91 | 1011.6 |
| 20260509212507 | 20 | 139 | 4.8 | 11.3 | 0.00 | 2.82 | 2.59 | 90 | 1011.5 |
| 20260509212002 | 20 | 150 | 3.2 | 12.9 | 0.00 | 2.87 | 2.59 | 91 | 1011.2 |
| 20260509211504 | 20 | 170 | 3.2 | 12.9 | 0.00 | 3.20 | 2.59 | 90 | 1011.1 |
| 20260509211003 | 20 | 114 | 4.8 | 12.9 | 0.00 | 3.86 | 2.59 | 91 | 1011.0 |
| 20260509210505 | 20 | 159 | 4.8 | 16.1 | 0.00 | 4.34 | 2.59 | 91 | 1010.9 |
| 20260509210009 | 20 | 151 | 6.4 | 16.1 | 0.00 | 4.55 | 2.59 | 90 | 1010.8 |
| 20260509205503 | 20 | 140 | 8.0 | 16.1 | 0.00 | 4.57 | 2.59 | 90 | 1010.6 |
| 20260509205003 | 20 | 115 | 8.0 | 12.9 | 0.00 | 4.60 | 2.59 | 91 | 1010.5 |
| 20260509204512 | 20 | 123 | 8.0 | 12.9 | 0.00 | 4.62 | 2.59 | 90 | 1010.4 |
| 20260509204004 | 20 | 126 | 6.4 | 11.3 | 0.00 | 4.67 | 2.59 | 90 | 1010.7 |
| 20260509203506 | 20 | 94 | 4.8 | 9.7 | 0.00 | 4.75 | 2.59 | 90 | 1010.8 |
| 20260509203024 | 20 | 148 | 1.6 | 12.9 | 0.00 | 4.90 | 2.59 | 91 | 1011.0 |
| 20260509202505 | 20 | 94 | 8.0 | 12.9 | 0.00 | 5.16 | 2.59 | 90 | 1011.2 |
| 20260509202013 | 20 | 94 | 9.7 | 14.5 | 0.00 | 5.16 | 2.59 | 90 | 1011.5 |
| 20260509201503 | 20 | 105 | 4.8 | 14.5 | 0.00 | 5.16 | 2.59 | 91 | 1011.5 |
| 20260509201003 | 20 | 134 | 8.0 | 12.9 | 0.00 | 5.18 | 2.59 | 91 | 1011.6 |
| 20260509200503 | 20 | 117 | 8.0 | 16.1 | 0.00 | 5.21 | 2.59 | 91 | 1011.7 |
| 20260509200007 | 20 | 127 | 3.2 | 17.7 | 0.00 | 5.21 | 2.59 | 93 | 1011.8 |
| 20260509195504 | 19 | 153 | 11.3 | 17.7 | 0.00 | 5.21 | 2.59 | 92 | 1011.9 |
| 20260509195003 | 19 | 150 | 9.7 | 17.7 | 0.00 | 5.21 | 2.59 | 92 | 1012.0 |
| 20260509194511 | 19 | 112 | 11.3 | 17.7 | 0.00 | 5.21 | 2.59 | 93 | 1012.1 |
| 20260509194005 | 18 | 105 | 11.3 | 16.1 | 0.03 | 5.21 | 2.59 | 93 | 1012.4 |
| 20260509193503 | 18 | 123 | 9.7 | 14.5 | 0.03 | 5.21 | 2.59 | 93 | 1012.6 |
| 20260509193016 | 18 | 152 | 8.0 | 12.9 | 0.03 | 5.21 | 2.59 | 94 | 1012.9 |
| 20260509192504 | 18 | 130 | 8.0 | 12.9 | 0.05 | 5.21 | 2.59 | 94 | 1013.1 |
| 20260509192006 | 18 | 117 | 4.8 | 11.3 | 0.08 | 5.21 | 2.59 | 94 | 1013.3 |
| 20260509191521 | 18 | 107 | 6.4 | 11.3 | 0.13 | 5.21 | 2.59 | 94 | 1013.3 |
| 20260509191008 | 18 | 130 | 4.8 | 9.7 | 0.15 | 5.21 | 2.59 | 94 | 1013.6 |
| 20260509190502 | 18 | 130 | 4.8 | 9.7 | 0.20 | 5.21 | 2.59 | 95 | 1013.5 |
| 20260509190005 | 18 | 157 | 4.8 | 11.3 | 0.28 | 5.21 | 2.59 | 95 | 1013.5 |
| 20260509185504 | 18 | 109 | 6.4 | 11.3 | 0.33 | 5.21 | 2.59 | 96 | 1013.6 |
| 20260509185006 | 18 | 117 | 4.8 | 4.8 | 0.41 | 5.21 | 2.59 | 95 | 1013.9 |
| 20260509184512 | 18 | 115 | 3.2 | 4.8 | 0.46 | 5.21 | 2.59 | 96 | 1014.1 |
| 20260509184004 | 18 | 107 | 3.2 | 6.4 | 0.46 | 5.18 | 2.57 | 96 | 1014.1 |
| 20260509183507 | 18 | 105 | 4.8 | 6.4 | 0.51 | 5.18 | 2.57 | 96 | 1014.4 |
| 20260509183018 | 18 | 91 | 3.2 | 6.4 | 0.56 | 5.18 | 2.57 | 96 | 1014.5 |
| 20260509182504 | 18 | 117 | 3.2 | 4.8 | 0.58 | 5.16 | 2.54 | 96 | 1014.7 |
| 20260509182012 | 18 | 124 | 0.0 | 8.0 | 0.58 | 5.13 | 2.51 | 96 | 1015.0 |
| 20260509181519 | 18 | 158 | 1.6 | 9.7 | 0.53 | 5.08 | 2.46 | 96 | 1015.2 |
| 20260509181007 | 18 | 169 | 4.8 | 9.7 | 0.56 | 5.05 | 2.44 | 96 | 1015.3 |
| 20260509180505 | 18 | 152 | 3.2 | 8.0 | 0.53 | 5.00 | 2.39 | 96 | 1015.6 |
| 20260509180023 | 18 | 227 | 0.0 | 3.2 | 0.48 | 4.93 | 2.31 | 96 | 1015.7 |
| 20260509175504 | 17 | 188 | 1.6 | 4.8 | 0.48 | 4.88 | 2.26 | 96 | 1015.8 |
| 20260509175003 | 17 | 200 | 0.0 | 4.8 | 0.46 | 4.80 | 2.18 | 96 | 1015.8 |
| 20260509174506 | 17 | 180 | 0.0 | 3.2 | 0.46 | 4.75 | 2.13 | 96 | 1015.6 |
| 20260509174004 | 17 | 273 | 0.0 | 1.6 | 0.51 | 4.72 | 2.11 | 96 | 1015.3 |
| 20260509173503 | 17 | 273 | 0.0 | 3.2 | 0.64 | 4.67 | 2.06 | 96 | 1015.3 |
| 20260509173012 | 17 | 190 | 0.0 | 6.4 | 0.84 | 4.62 | 2.01 | 96 | 1015.8 |
| 20260509172505 | 17 | 197 | 3.2 | 6.4 | 0.97 | 4.57 | 1.96 | 96 | 1015.9 |
| 20260509172003 | 17 | 185 | 0.0 | 3.2 | 0.97 | 4.55 | 1.93 | 96 | 1015.8 |
| 20260509171517 | 17 | 234 | 0.0 | 3.2 | 0.97 | 4.55 | 1.93 | 96 | 1015.5 |
| 20260509171006 | 17 | 249 | 0.0 | 3.2 | 0.91 | 4.50 | 1.88 | 96 | 1015.4 |
| 20260509170507 | 17 | 248 | 1.6 | 4.8 | 0.89 | 4.47 | 1.85 | 96 | 1015.5 |
| 20260509170024 | 17 | 288 | 0.0 | 4.8 | 0.86 | 4.45 | 1.83 | 96 | 1015.4 |
| 20260509165508 | 17 | 9 | 1.6 | 4.8 | 0.84 | 4.39 | 1.78 | 96 | 1015.1 |
| 20260509165008 | 17 | 9 | 0.0 | 8.0 | 0.89 | 4.34 | 1.73 | 95 | 1015.1 |
| 20260509164505 | 17 | 309 | 0.0 | 8.0 | 0.89 | 4.29 | 1.68 | 95 | 1015.4 |
| 20260509164002 | 17 | 32 | 3.2 | 8.0 | 0.91 | 4.22 | 1.60 | 95 | 1015.3 |
| 20260509163506 | 18 | 324 | 3.2 | 6.4 | 0.84 | 4.04 | 1.42 | 95 | 1015.3 |
| 20260509163009 | 18 | 47 | 1.6 | 6.4 | 0.79 | 3.78 | 1.17 | 95 | 1015.6 |
| 20260509162505 | 18 | 155 | 0.0 | 9.7 | 0.64 | 3.61 | 0.99 | 95 | 1015.8 |
| 20260509162002 | 18 | 81 | 0.0 | 12.9 | 0.61 | 3.58 | 0.97 | 95 | 1015.4 |
| 20260509161514 | 18 | 35 | 4.8 | 12.9 | 0.64 | 3.58 | 0.97 | 95 | 1015.0 |
| 20260509161002 | 18 | 21 | 4.8 | 8.0 | 0.71 | 3.58 | 0.97 | 95 | 1015.0 |
| 20260509160507 | 18 | 352 | 4.8 | 8.0 | 0.74 | 3.58 | 0.97 | 95 | 1015.0 |
| 20260509160020 | 18 | 360 | 4.8 | 8.0 | 0.76 | 3.58 | 0.97 | 95 | 1015.2 |
| 20260509155506 | 18 | 36 | 3.2 | 8.0 | 0.74 | 3.56 | 0.94 | 95 | 1015.2 |
| 20260509155007 | 18 | 360 | 1.6 | 11.3 | 0.66 | 3.45 | 0.84 | 95 | 1015.4 |
| 20260509154524 | 18 | 49 | 4.8 | 11.3 | 0.61 | 3.40 | 0.79 | 95 | 1015.2 |
| 20260509154012 | 18 | 344 | 1.6 | 4.8 | 0.53 | 3.30 | 0.69 | 95 | 1015.3 |
| 20260509153505 | 18 | 26 | 3.2 | 6.4 | 0.43 | 3.20 | 0.58 | 95 | 1015.1 |
| 20260509153011 | 18 | 70 | 3.2 | 14.5 | 0.25 | 2.97 | 0.38 | 95 | 1015.1 |
| 20260509152504 | 18 | 360 | 1.6 | 14.5 | 0.25 | 2.95 | 0.36 | 95 | 1015.0 |
| 20260509152004 | 18 | 93 | 11.3 | 14.5 | 0.28 | 2.95 | 0.36 | 95 | 1014.7 |
| 20260509151512 | 18 | 68 | 0.0 | 4.8 | 0.25 | 2.95 | 0.33 | 95 | 1015.1 |
| 20260509151003 | 18 | 66 | 1.6 | 4.8 | 0.18 | 2.87 | 0.25 | 94 | 1015.0 |
| 20260509150509 | 18 | 55 | 0.0 | 8.0 | 0.20 | 2.84 | 0.23 | 94 | 1014.9 |
| 20260509150017 | 18 | 55 | 3.2 | 8.0 | 0.18 | 2.82 | 0.20 | 94 | 1014.8 |
| 20260509145507 | 18 | 55 | 3.2 | 9.7 | 0.20 | 2.82 | 0.20 | 94 | 1014.7 |
| 20260509145007 | 18 | 47 | 4.8 | 9.7 | 0.18 | 2.79 | 0.18 | 94 | 1014.6 |
| 20260509144532 | 18 | 54 | 4.8 | 19.3 | 0.18 | 2.79 | 0.18 | 94 | 1014.6 |
| 20260509144007 | 18 | 85 | 6.4 | 19.3 | 0.15 | 2.77 | 0.15 | 94 | 1014.6 |
| 20260509143508 | 18 | 84 | 8.0 | 17.7 | 0.15 | 2.77 | 0.15 | 94 | 1014.6 |
| 20260509143024 | 18 | 65 | 3.2 | 12.9 | 0.13 | 2.74 | 0.13 | 94 | 1014.6 |
| 20260509142503 | 18 | 86 | 1.6 | 9.7 | 0.10 | 2.72 | 0.10 | 94 | 1014.5 |
| 20260509142003 | 18 | 96 | 3.2 | 16.1 | 0.08 | 2.67 | 0.08 | 94 | 1014.5 |
| 20260509141512 | 18 | 49 | 0.0 | 16.1 | 0.08 | 2.67 | 0.08 | 94 | 1014.7 |
| 20260509141002 | 18 | 24 | 6.4 | 24.1 | 0.08 | 2.67 | 0.08 | 93 | 1014.6 |
| 20260509140502 | 18 | 53 | 8.0 | 24.1 | 0.03 | 2.64 | 0.03 | 93 | 1014.5 |
| 20260509140033 | 18 | 35 | 9.7 | 24.1 | 0.03 | 2.64 | 0.03 | 94 | 1014.5 |
| 20260509135507 | 18 | 35 | 3.2 | 14.5 | 0.00 | 2.62 | 0.00 | 95 | 1014.5 |
| 20260509135007 | 18 | 306 | 4.8 | 14.5 | 0.00 | 2.62 | 0.00 | 95 | 1014.3 |
| 20260509134523 | 18 | 53 | 9.7 | 14.5 | 0.00 | 2.62 | 0.00 | 96 | 1014.1 |
| 20260509134004 | 18 | 148 | 4.8 | 9.7 | 0.00 | 2.62 | 0.00 | 95 | 1014.0 |
| 20260509133516 | 18 | 224 | 3.2 | 9.7 | 0.00 | 2.62 | 0.00 | 96 | 1014.1 |
| 20260509133026 | 18 | 133 | 4.8 | 14.5 | 0.00 | 2.62 | 0.00 | 96 | 1014.0 |
| 20260509132508 | 18 | 93 | 6.4 | 14.5 | 0.00 | 2.62 | 0.00 | 96 | 1014.1 |
| 20260509132011 | 18 | 55 | 4.8 | 9.7 | 0.00 | 2.62 | 0.00 | 96 | 1014.2 |
| 20260509131509 | 18 | 42 | 4.8 | 9.7 | 0.00 | 2.62 | 0.00 | 96 | 1014.2 |
| 20260509131005 | 18 | 55 | 4.8 | 8.0 | 0.00 | 2.62 | 0.00 | 96 | 1014.1 |
| 20260509130503 | 18 | 56 | 0.0 | 12.9 | 0.00 | 2.62 | 0.00 | 96 | 1014.5 |
| 20260509130023 | 18 | 22 | 3.2 | 12.9 | 0.00 | 2.62 | 0.00 | 96 | 1014.4 |
| 20260509125504 | 18 | 17 | 3.2 | 8.0 | 0.00 | 2.62 | 0.00 | 96 | 1014.2 |
| 20260509125007 | 18 | 55 | 4.8 | 8.0 | 0.00 | 2.62 | 0.00 | 96 | 1014.0 |
| 20260509124524 | 18 | 49 | 4.8 | 11.3 | 0.00 | 2.62 | 0.00 | 97 | 1013.8 |
| 20260509124010 | 18 | 28 | 3.2 | 11.3 | 0.00 | 2.62 | 0.00 | 96 | 1013.8 |
| 20260509123507 | 18 | 333 | 4.8 | 9.7 | 0.00 | 2.62 | 0.00 | 97 | 1013.6 |
| 20260509123024 | 18 | 26 | 6.4 | 12.9 | 0.00 | 2.62 | 0.00 | 97 | 1013.0 |
| 20260509122509 | 18 | 77 | 8.0 | 12.9 | 0.00 | 2.62 | 0.00 | 97 | 1012.5 |
| 20260509122003 | 17 | 102 | 8.0 | 9.7 | 0.00 | 2.62 | 0.00 | 97 | 1012.5 |
| 20260509121508 | 17 | 76 | 1.6 | 6.4 | 0.00 | 2.62 | 0.00 | 97 | 1012.5 |
| 20260509121003 | 17 | 48 | 1.6 | 6.4 | 0.00 | 2.62 | 0.00 | 97 | 1012.8 |
| 20260509120504 | 17 | 140 | 1.6 | 9.7 | 0.00 | 2.62 | 0.00 | 97 | 1012.9 |
| 20260509120014 | 17 | 128 | 4.8 | 9.7 | 0.00 | 2.62 | 0.00 | 97 | 1012.3 |
| 20260509115503 | 17 | 100 | 4.8 | 6.4 | 0.00 | 2.62 | 0.00 | 97 | 1012.2 |
| 20260509115003 | 17 | 165 | 1.6 | 4.8 | 0.00 | 2.62 | 0.00 | 97 | 1012.2 |
| 20260509114520 | 17 | 263 | 1.6 | 4.8 | 0.00 | 2.62 | 0.00 | 97 | 1012.4 |
| 20260509114008 | 17 | 261 | 1.6 | 3.2 | 0.00 | 2.62 | 0.00 | 97 | 1012.4 |
| 20260509113508 | 17 | 261 | 1.6 | 3.2 | 0.00 | 2.62 | 0.00 | 97 | 1012.3 |
| 20260509113024 | 17 | 257 | 1.6 | 3.2 | 0.00 | 2.62 | 0.00 | 97 | 1012.1 |
| 20260509112503 | 17 | 257 | 0.0 | 6.4 | 0.00 | 2.62 | 0.00 | 97 | 1012.0 |
| 20260509112003 | 17 | 257 | 1.6 | 6.4 | 0.00 | 2.62 | 0.00 | 97 | 1011.9 |
| 20260509111507 | 17 | 36 | 3.2 | 6.4 | 0.00 | 2.62 | 0.00 | 97 | 1011.9 |
| 20260509111003 | 17 | 342 | 3.2 | 4.8 | 0.00 | 2.62 | 0.00 | 97 | 1011.7 |
| 20260509110503 | 17 | 97 | 0.0 | 9.7 | 0.00 | 2.62 | 0.00 | 97 | 1011.3 |
| 20260509110017 | 17 | 151 | 1.6 | 9.7 | 0.00 | 2.62 | 0.00 | 97 | 1011.1 |
| 20260509105503 | 17 | 148 | 6.4 | 9.7 | 0.00 | 2.62 | 0.00 | 97 | 1010.8 |
| 20260509105003 | 17 | 113 | 4.8 | 6.4 | 0.00 | 2.62 | 0.00 | 97 | 1011.0 |
| 20260509104515 | 17 | 142 | 3.2 | 6.4 | 0.00 | 2.62 | 0.00 | 97 | 1011.2 |
| 20260509104007 | 17 | 148 | 4.8 | 6.4 | 0.00 | 2.62 | 0.00 | 97 | 1011.1 |
| 20260509103510 | 17 | 111 | 3.2 | 4.8 | 0.00 | 2.62 | 0.00 | 97 | 1010.9 |
| 20260509103022 | 17 | 125 | 1.6 | 3.2 | 0.00 | 2.62 | 0.00 | 97 | 1011.1 |
| 20260509102508 | 17 | 112 | 0.0 | 0.0 | 0.00 | 2.62 | 0.00 | 97 | 1011.2 |
| 20260509102007 | 17 | 111 | 0.0 | 0.0 | 0.00 | 2.62 | 0.00 | 97 | 1011.5 |
| 20260509101506 | 17 | 111 | 0.0 | 0.0 | 0.00 | 2.62 | 0.00 | 97 | 1011.7 |
| 20260509101004 | 17 | 128 | 0.0 | 3.2 | 0.00 | 2.62 | 0.00 | 97 | 1011.7 |
| 20260509100504 | 17 | 186 | 1.6 | 3.2 | 0.00 | 2.62 | 0.00 | 97 | 1012.1 |
| 20260509100018 | 17 | 263 | 0.0 | 4.8 | 0.00 | 2.62 | 0.00 | 97 | 1012.5 |
| 20260509095504 | 17 | 319 | 3.2 | 4.8 | 0.00 | 2.62 | 0.00 | 96 | 1012.7 |
| 20260509095005 | 17 | 306 | 0.0 | 1.6 | 0.00 | 2.62 | 0.00 | 97 | 1012.6 |
| 20260509094515 | 17 | 296 | 0.0 | 0.0 | 0.00 | 2.62 | 0.00 | 97 | 1012.4 |
| 20260509094004 | 17 | 309 | 0.0 | 0.0 | 0.00 | 2.62 | 0.00 | 97 | 1012.4 |
| 20260509093508 | 17 | 9 | 0.0 | 0.0 | 0.00 | 2.62 | 0.00 | 97 | 1012.2 |
| 20260509093023 | 17 | 5 | 0.0 | 0.0 | 0.00 | 2.62 | 0.00 | 97 | 1012.1 |
| 20260509092511 | 17 | 46 | 0.0 | 0.0 | 0.00 | 2.62 | 0.00 | 97 | 1012.1 |
| 20260509091527 | 17 | 67 | 0.0 | 0.0 | 0.00 | 2.62 | 0.00 | 97 | 1011.9 |
| 20260509091014 | 17 | 67 | 0.0 | 0.0 | 0.00 | 2.62 | 0.00 | 97 | 1012.0 |
| 20260509090504 | 17 | 67 | 0.0 | 0.0 | 0.00 | 2.62 | 0.00 | 97 | 1011.9 |
| 20260509090010 | 17 | 67 | 0.0 | 0.0 | 0.00 | 2.62 | 0.00 | 96 | 1011.8 |
| 20260509085503 | 17 | 67 | 0.0 | 0.0 | 0.00 | 2.62 | 0.00 | 96 | 1011.7 |
| 20260509085003 | 17 | 67 | 0.0 | 0.0 | 0.00 | 2.62 | 0.00 | 96 | 1011.7 |
| 20260509084526 | 17 | 279 | 0.0 | 0.0 | 0.00 | 2.62 | 0.00 | 96 | 1011.9 |
| 20260509084005 | 17 | 279 | 0.0 | 0.0 | 0.00 | 2.62 | 0.00 | 96 | 1012.1 |
| 20260509083506 | 17 | 279 | 0.0 | 0.0 | 0.00 | 2.62 | 0.00 | 96 | 1012.4 |
| 20260509083033 | 17 | 279 | 0.0 | 0.0 | 0.00 | 2.62 | 0.00 | 96 | 1012.3 |
| 20260509082511 | 17 | 279 | 0.0 | 0.0 | 0.00 | 2.62 | 0.00 | 96 | 1012.1 |
| 20260509082006 | 17 | 279 | 0.0 | 0.0 | 0.00 | 2.62 | 0.00 | 96 | 1012.1 |
| 20260509081529 | 17 | 279 | 0.0 | 0.0 | 0.00 | 2.62 | 0.00 | 96 | 1011.9 |
| 20260509081008 | 17 | 279 | 0.0 | 0.0 | 0.00 | 2.62 | 0.00 | 96 | 1012.0 |
| 20260509080507 | 17 | 279 | 0.0 | 0.0 | 0.00 | 2.62 | 0.00 | 96 | 1012.1 |
| 20260509080035 | 17 | 279 | 0.0 | 0.0 | 0.00 | 2.62 | 0.00 | 96 | 1012.0 |